Weather observations for the past three days for
Chenault Airpark
Metric (Imperial)
Date Time (cdt) Wind (kph) Vis. (km) Weather Sky Cond. Temperature (ºC) Relative Humidity Wind Chill (°C) Heat Index (°C) Pressure Precipitation (cm)
Air Dwpt 6 hour altimeter (cm) sea level (mb) 1 hr 3 hr 6 hr
Max. Min.
30 19:58 E 7 16.09 Fair CLR 30 21 59% 33 76.02 0.0
30 17:52 SE 11 16.09 Fair CLR 36 20 39% 39 76.02 0.0
30 16:53 SE 11 16.09 Mostly Cloudy BKN080 35 19 39% 37 76.05 0.0
30 15:48 Vrbl 7 16.09 Mostly Cloudy BKN060 37 18 33% 39 76.07 0.0
30 14:50 E 11 16.09 Mostly Cloudy BKN060 BKN075 36 21 42% 40 76.2 0.0
30 14:45 Vrbl 7 16.09 Mostly Cloudy BKN060 37 20 37% 40 76.15 0.0
30 13:45 NE 9 16.09 Mostly Cloudy BKN060 BKN075 36 20 39% 39 76.2 0.0
30 10:50 Calm 16.09 Partly Cloudy SCT030 32 24 63% 38 76.33 0.0
30 08:45 Calm 16.09 Fair CLR 28 26 89% 34 76.33 0.0
30 07:50 Calm 16.09 Fair CLR 26 26 100% 28 76.3 0.0
30 06:45 Calm 16.09 Fog/Mist CLR 24 24 100% 23 76.28 0.0
30 05:35 Calm 11.27 Fog/Mist CLR 25.1 24.8 98% 26 76.23 0.0
30 05:15 Calm 4.83 Fog/Mist CLR 24.8 24.7 99% 25 76.2 0.0
30 04:55 E 6 2.41 Fog/Mist VV007 24.5 24.4 99% 24 76.23 0.0
30 04:35 Calm 1.21 Fog/Mist VV005 24.7 24.6 99% 25 76.23 0.0
30 04:15 Calm 1.61 Fog/Mist VV007 24.7 24.5 99% 25 76.23 0.0
30 03:55 Calm 4.83 Fog/Mist CLR 24.8 24.5 98% 25 76.2 0.0
30 03:35 Calm 4.83 Fog/Mist CLR 25.1 24.8 98% 26 76.2 0.0
30 03:15 Calm 11.27 Fair CLR 25.4 24.8 97% 27 76.2 0.0
30 02:55 Calm 8.05 Fog/Mist CLR 25.4 25 98% 27 76.2 0.0
30 02:35 E 6 5.63 Fog/Mist CLR 25.1 24.7 98% 26 76.2 0.0
30 02:15 SE 6 8.05 Fog/Mist CLR 25.3 25 98% 26 76.23 0.0
30 01:55 Calm 11.27 Partly Cloudy SCT085 25.8 25.2 97% 28 76.23 0.0
30 01:35 Calm 16.09 Mostly Cloudy BKN085 26.2 25.3 95% 29 76.25 0.0
30 01:15 Calm 16.09 Overcast OVC085 26.2 25.3 95% 29 76.25 0.0
30 00:55 Calm 16.09 Overcast OVC085 26.1 25.3 30.9 25.5 95% 29 76.25 0.0
30 00:35 Calm 16.09 Mostly Cloudy BKN075 26.1 25.2 95% 29 76.25 0.0
30 00:15 Calm 16.09 Mostly Cloudy BKN075 26.3 25.2 94% 29 76.25 0.0
29 23:55 Calm 16.09 Mostly Cloudy BKN075 25.5 24.8 96% 27 76.25 0.0
29 23:35 Calm 16.09 Fair CLR 25.9 24.9 94% 28 76.25 0.0
29 23:15 Calm 16.09 Fair CLR 25.9 25 95% 28 76.25 0.0
29 22:55 SE 6 16.09 Fair CLR 25.9 25.1 95% 28 76.25 0.0
29 22:35 SE 6 16.09 Fair CLR 26.4 25.1 93% 29 76.23 0.0
29 22:15 S 6 16.09 Fair CLR 26.7 25.2 92% 30 76.2 0.0
29 21:50 Calm 16.09 Fair CLR 27 25 89% 31 76.2 0.0
29 19:55 S 9 16.09 Fair CLR 30 24 70% 35 76.12 0.0
29 18:55 S 13 16.09 Mostly Cloudy BKN100 31 24 66% 37 76.12 0.0
29 16:55 S 19 16.09 Mostly Cloudy BKN100 33 23 56% 38 76.15 0.0
29 15:54 W 9 16.09 Mostly Cloudy BKN080 33 22 52% 37 76.17 0.0
29 14:55 S 7 16.09 Mostly Cloudy BKN070 34 23 53% 39 76.23 0.0
29 13:50 Calm 16.09 Showers Rain BKN055 BKN080 34 22 50% 38 76.28 0.0
29 12:50 Vrbl 11 16.09 Mostly Cloudy BKN060 34 22 50% 38 76.33 0.0
29 11:47 Vrbl 11 16.09 Mostly Cloudy BKN045 34 23 53% 39 76.38 0.0
29 09:50 Vrbl 9 16.09 Fair CLR 32 23 59% 37 76.35 0.0
29 08:45 SW 6 16.09 Fair CLR 29 24 74% 34 76.35 0.0
29 07:45 SW 6 16.09 Fair CLR 26 23 84% 28 76.35 0.0
29 06:45 SW 6 16.09 Fair CLR 24 23 94% 23 76.33 0.0
29 05:35 N 6 16.09 Fair CLR 25.5 23.2 87% 27 76.3 0.0
29 05:15 N 6 16.09 Fair CLR 25.8 23.1 85% 27 76.28 0.0
29 04:55 NW 7 16.09 Fair CLR 26.1 23.2 84% 28 76.28 0.0
29 04:35 NW 6 16.09 Fair CLR 26.1 23.8 87% 28 76.28 0.0
29 04:15 N 6 16.09 Fair CLR 26.4 23.8 86% 29 76.28 0.0
29 03:55 NW 6 16.09 Fair CLR 26.7 24.3 87% 30 76.28 0.0
29 03:35 NW 6 16.09 Fair CLR 26.7 24.7 89% 30 76.28 0.0
29 03:15 NW 7 16.09 Fair CLR 27.1 25 88% 31 76.25 0.0
29 02:55 NW 7 16.09 Fair CLR 27 24.9 88% 31 76.25 0.0
29 02:35 N 6 16.09 Fair CLR 27.3 25.1 88% 31 76.25 0.0
29 02:15 NW 6 16.09 Fair CLR 27.4 25.2 88% 32 76.25 0.0
29 01:55 NW 6 16.09 Fair CLR 27.8 25.2 86% 32 76.25 0.0
29 01:35 W 7 16.09 Fair CLR 28.2 25.4 85% 33 76.25 0.0
29 01:15 NW 6 16.09 Fair CLR 28 25.4 86% 33 76.25 0.0
29 00:55 NW 7 16.09 Fair CLR 28.1 25.4 32 27.7 85% 33 76.25 0.0
29 00:35 NW 7 16.09 Fair CLR 27.8 25.1 85% 32 76.28 0.0
29 00:15 W 9 16.09 Fair CLR 29.3 25.3 79% 35 76.28 0.0
28 23:55 W 9 16.09 Fair CLR 29.3 25.2 79% 35 76.25 0.0
28 23:35 W 7 16.09 Fair CLR 29.4 25.2 78% 35 76.25 0.0
28 23:15 W 7 16.09 Fair CLR 29.5 25.1 77% 35 76.25 0.0
28 22:55 W 9 16.09 Fair CLR 29.6 24.9 76% 35 76.25 0.0
28 22:35 SW 7 16.09 Fair CLR 29.6 24.6 75% 35 76.25 0.0
28 22:15 SW 7 16.09 Fair CLR 29.8 24.3 72% 35 76.23 0.0
28 21:45 SW 11 16.09 Fair CLR 29 24 74% 34 76.2 0.0
28 19:45 S 11 16.09 Fair CLR 30 22 62% 33 76.12 0.0
28 18:45 SW 15 16.09 Fair CLR 32 22 55% 36 76.1 0.0
28 15:50 NE 19 G 33 16.09 Mostly Cloudy BKN055 BKN075 37 21 39% 41 76.1 0.0
28 14:50 E 7 16.09 Mostly Cloudy BKN055 BKN070 36 21 42% 40 76.23 0.0
28 13:45 N 9 16.09 Mostly Cloudy SCT050 BKN075 34 21 47% 37 76.25 0.0
28 12:55 NE 9 16.09 Mostly Cloudy SCT050 BKN075 35 22 47% 39 76.3 0.0
28 11:45 NE 9 16.09 Mostly Cloudy BKN040 34 23 53% 39 76.33 0.0
28 10:45 Vrbl 9 16.09 Partly Cloudy SCT035 33 24 59% 39 76.33 0.0
28 09:45 Vrbl 9 16.09 A Few Clouds FEW030 31 26 75% 39 76.3 0.0
28 08:45 Vrbl 11 16.09 Fair CLR 28 26 89% 34 76.3 0.0
28 07:55 Calm 16.09 Fair CLR 26 25 94% 28 76.3 0.0
28 06:55 Calm 11.27 Fair CLR 25 24 94% 26 76.25 0.0
28 05:35 Calm 8.05 Fog/Mist CLR 24.4 24.1 98% 24 76.23 0.0
28 05:15 Calm 8.05 Fog/Mist CLR 24.3 24 98% 24 76.2 0.0
28 04:55 NE 6 16.09 Fair CLR 25.1 24.7 98% 26 76.2 0.0
28 04:35 Calm 11.27 Fog/Mist CLR 25 24.5 97% 25 76.17 0.0
28 04:15 Calm 16.09 Fair CLR 25.6 24.8 95% 27 76.2 0.0
28 03:55 Calm 16.09 Fair CLR 25.5 24.6 95% 27 76.2 0.0
28 03:35 Calm 16.09 Fair CLR 25.8 24.5 93% 28 76.2 0.0
28 03:15 N 6 16.09 Fair CLR 25.8 24.4 92% 28 76.2 0.0
28 02:55 Calm 16.09 Fair CLR 25.3 24.5 95% 26 76.2 0.0
28 02:35 Calm 16.09 Fair CLR 25 24 94% 26 76.2 0.0
28 02:15 Calm 16.09 Fair CLR 26.3 24.7 91% 29 76.2 0.0
28 01:55 Calm 16.09 Fair CLR 26 24.8 93% 28 76.23 0.0
28 01:35 Calm 16.09 Fair CLR 25.5 24.6 95% 27 76.2 0.0
28 01:15 SE 6 16.09 Fair CLR 25.7 24.4 93% 27 76.2 0.0
28 00:55 Calm 16.09 Fair CLR 25.6 24.4 31.1 25.6 93% 27 76.2 0.0
28 00:35 Calm 16.09 Mostly Cloudy BKN050 26.4 24.6 90% 29 76.2 0.0
28 00:15 Calm 16.09 Mostly Cloudy BKN050 26.1 24.5 91% 28 76.2 0.0
27 23:55 Calm 16.09 Mostly Cloudy BKN060 26.4 24.5 89% 29 76.2 0.0
27 23:35 Calm 16.09 Partly Cloudy SCT060 26.4 24.4 89% 29 76.2 0.0
27 23:15 Calm 16.09 Partly Cloudy SCT046 26.4 24.3 88% 29 76.2 0.0
27 22:55 SW 7 16.09 Mostly Cloudy BKN046 28.4 24.6 80% 33 76.17 0.0
27 22:35 S 7 16.09 Partly Cloudy SCT046 28.2 24.7 81% 33 76.17 0.0
27 22:15 S 9 16.09 Fair CLR 28.1 24.7 82% 33 76.15 0.0
27 21:45 S 9 16.09 Fair CLR 28 24 79% 32 76.12 0.0
Date Time (cdt) Wind (kph) Vis. (km) Weather Sky Cond. Air Dwpt Max. Min. Relative Humidity Wind Chill (°C) Heat Index (°C) altimeter (cm) sea level (mb) 1 hr 3 hr 6 hr
6 hour
Temperature (ºC) Pressure Precipitation (cm)